www.pogodaiklimat.ru

Погода и климат >> Архив погоды >> Австралия >> Западная Австралия >> Марбл-бар


ПОГОДА в Марбл-баре

  • Прогноз погоды в Марбл-баре
  • Монитор погоды в Марбл-баре

АРХИВ ПОГОДЫ в Марбл-баре

Время (UTC), дата Ветер
(напр.,м/с)
 
Видим.   Явления Облачность Т
(С)
Тd
(С)
f
(%)
Тe
(С)
Тes
(С)
Комфортность P
(гПа)
Po
(гПа)
Тmin
(С)
Tmax
(С)
R
(мм)
R24
(мм)
S
(см)
04 17.01 В 4 н/о {туман} н/о +38.6 +16.8 28 +41 +41 опасность
перегрева
1006.3 986.2
06 17.01 В 3 н/о н/о +41.0 +16.4 24 +43 +43 опасность
перегрева
1004.2 984.1
07 17.01 В 4 н/о {туман} н/о +41.2 +15.2 22 +42 +42 опасность
перегрева
1003.3 983.3
09 17.01 В 2 н/о н/о +40.6 +14.7 22 +41 +41 опасность
перегрева
1002.2 982.2
10 17.01 ЮВ 2 н/о н/о +40.3 +14.5 22 +41 +41 опасность
перегрева
1002.9 982.9
12 17.01 СЗ 6 н/о н/о +34.1 +22.5 51 +43 +43 опасность
перегрева
1005.4 985.3
13 17.01 ЮВ 2 н/о н/о +26.9 +22.1 75 +35 +35 очень
душно
1008.5 988.3 +42.6
15 17.01 Ю 1 н/о н/о +29.1 +21.6 64 +37 +37 очень
душно
1007.3 987.2
16 17.01 З 2 н/о {туман} н/о +29.2 +20.9 61 +36 +36 очень
душно
1006.5 986.4
18 17.01 СВ 3 н/о н/о +29.3 +21.3 62 +37 +37 очень
душно
1006.7 986.6
19 17.01 С 2 н/о {туман} н/о +27.7 +20.5 65 +34 +34 очень
душно
1005.9 985.8
21 17.01 СЗ 2 н/о н/о +28.0 +20.6 64 +35 +35 очень
душно
1007.1 987.0
22 17.01 СЗ 2 н/о н/о +28.3 +20.6 63 +35 +35 очень
душно
1007.9 987.8
00 18.01 С 6 н/о н/о +30.1 +20.4 56 +37 +37 очень
душно
1009.7 989.5
01 18.01 СЗ 4 н/о н/о +32.6 +20.2 48 +39 +39 очень
душно
1009.0 988.8 +26.3
03 18.01 ЮЗ 3 н/о н/о +36.7 +18.7 35 +41 +41 опасность
перегрева
1007.5 987.4
04 18.01 СЗ 3 н/о н/о +37.5 +19.4 35 +42 +42 опасность
перегрева
1006.6 986.5
06 18.01 В 2 н/о н/о +39.8 +16.7 26 +42 +42 опасность
перегрева
1005.6 985.5
07 18.01 СВ 3 н/о н/о +40.4 +15.2 23 +42 +42 опасность
перегрева
1004.9 984.8
09 18.01 Ю 2 н/о н/о +40.7 +14.8 22 +42 +42 опасность
перегрева
1003.8 983.7
10 18.01 В 3 н/о н/о +39.0 +14.1 23 +40 +40 очень
душно
1003.9 983.8
12 18.01 С 2 н/о н/о +36.0 +14.1 27 +37 +37 душно 1005.3 985.2
13 18.01 С 1 н/о н/о +35.4 +15.2 30 +37 +37 очень
душно
1006.0 985.9 +41.5
15 18.01 С 3 н/о н/о +33.5 +18.0 40 +38 +38 очень
душно
1006.4 986.3
16 18.01 СЗ 4 н/о н/о +32.6 +18.8 44 +38 +38 очень
душно
1006.5 986.4
18 18.01 З 2 н/о н/о +31.5 +18.8 47 +37 +37 очень
душно
1006.0 985.9
19 18.01 С 3 н/о н/о +30.5 +19.5 52 +36 +36 очень
душно
1006.3 986.2
21 18.01 С 3 н/о н/о +29.7 +20.5 58 +37 +37 очень
душно
1007.4 987.3
22 18.01 СВ 1 н/о н/о +29.7 +20.8 59 +37 +37 очень
душно
1008.0 987.9
00 19.01 В 1 н/о н/о +34.5 +19.7 42 +40 +40 очень
душно
1009.0 988.8
01 19.01 ЮВ 1 н/о н/о +36.4 +19.4 37 +41 +41 опасность
перегрева
1009.1 988.9 +29.3
03 19.01 В 4 н/о н/о +40.0 +16.8 26 +42 +42 опасность
перегрева
1008.3 988.2
04 19.01 В 2 н/о н/о +39.6 +15.9 25 +41 +41 опасность
перегрева
1007.6 987.5
06 19.01 В 5 н/о н/о +42.4 +15.5 21 +44 +44 опасность
перегрева
1005.9 985.8
07 19.01 ЮВ 3 н/о н/о +42.1 +12.9 18 +42 +42 опасность
перегрева
1005.1 985.0
09 19.01 В 3 н/о н/о +41.4 +13.9 20 +42 +42 опасность
перегрева
1004.2 984.1
10 19.01 СЗ 7 н/о н/о +32.5 +19.4 46 +38 +38 очень
душно
1005.7 985.6
12 19.01 СЗ 4 н/о н/о +32.8 +21.0 50 +40 +40 очень
душно
1006.7 986.6
13 19.01 З 2 н/о н/о +33.8 +19.5 43 +39 +39 очень
душно
1007.0 986.9 +43.4
15 19.01 ЮЗ 3 н/о н/о +33.0 +19.8 46 +39 +39 очень
душно
1008.3 988.2
16 19.01 З 1 н/о н/о +32.2 +20.5 50 +39 +39 очень
душно
1008.2 988.1
18 19.01 ЮЗ 1 н/о н/о +31.3 +20.6 53 +38 +38 очень
душно
1007.3 987.2
19 19.01 Ю 2 н/о н/о +30.9 +20.5 54 +38 +38 очень
душно
1007.5 987.4
21 19.01 С 3 н/о н/о +29.5 +23.0 68 +39 +39 очень
душно
1008.8 988.6
22 19.01 СЗ 2 н/о н/о +29.1 +22.8 69 +39 +39 очень
душно
1008.9 988.7
00 20.01 штиль 0 н/о н/о +33.6 +21.7 50 +42 +42 опасность
перегрева
1009.4 989.2
01 20.01 З 2 н/о н/о +35.5 +20.2 41 +42 +42 опасность
перегрева
1009.4 989.2 +29.0
03 20.01 ЮВ 3 н/о н/о +39.9 +14.8 23 +41 +41 опасность
перегрева
1008.1 988.0
04 20.01 ЮВ 3 н/о н/о +40.5 +15.3 23 +42 +42 опасность
перегрева
1007.2 987.1
06 20.01 ЮВ 5 н/о н/о +43.5 +12.2 16 +43 +43 опасность
перегрева
1005.1 985.0
07 20.01 В 6 н/о н/о +43.3 +12.0 16 +43 +43 опасность
перегрева
1004.2 984.1
09 20.01 С 6 н/о н/о +40.9 +14.3 21 +41 +41 опасность
перегрева
1003.6 983.5
10 20.01 С 4 н/о н/о +40.2 +13.7 21 +40 +40 очень
жарко
1004.2 984.1
12 20.01 С 2 н/о н/о +38.1 +15.2 26 +39 +39 очень
душно
1005.5 985.4
13 20.01 С 2 н/о н/о +37.3 +16.3 29 +39 +39 очень
душно
1006.1 986.0 +45.4
15 20.01 С 1 н/о н/о +35.2 +17.9 36 +39 +39 очень
душно
1007.1 987.0
16 20.01 СЗ 3 н/о н/о +34.6 +19.4 41 +40 +40 очень
душно
1006.8 986.7
18 20.01 С 1 н/о н/о +32.9 +20.1 47 +39 +39 очень
душно
1006.4 986.3
19 20.01 З 2 н/о н/о +33.0 +19.5 45 +39 +39 очень
душно
1005.8 985.7
21 20.01 З 2 н/о н/о +32.5 +18.7 44 +37 +37 очень
душно
1005.8 985.7
22 20.01 Ю 1 н/о н/о +31.7 +19.3 48 +37 +37 очень
душно
1006.2 986.1
00 21.01 ЮЗ 3 н/о н/о +36.4 +17.5 33 +40 +40 очень
душно
1006.3 986.2
01 21.01 ЮЗ 3 н/о н/о +38.2 +16.5 28 +40 +40 очень
душно
1006.2 986.1 +31.5
03 21.01 ЮЗ 3 н/о н/о +41.3 +14.6 21 +42 +42 опасность
перегрева
1005.7 985.6
04 21.01 СВ 1 н/о н/о +42.0 +14.4 20 +43 +43 опасность
перегрева
1004.6 984.5
06 21.01 С 2 н/о н/о +42.8 +12.5 17 +42 +42 опасность
перегрева
1002.3 982.3
07 21.01 СЗ 3 н/о н/о +43.8 +13.3 17 +44 +44 опасность
перегрева
1001.9 981.9
09 21.01 С 8 н/о н/о +40.0 +18.0 28 +43 +43 опасность
перегрева
1001.4 981.4
10 21.01 СЗ 7 н/о н/о +37.7 +18.7 33 +42 +42 опасность
перегрева
1002.2 982.2
12 21.01 СЗ 5 н/о н/о +35.6 +22.2 46 +44 +44 опасность
перегрева
1002.9 982.9
13 21.01 З 3 н/о н/о +35.6 +20.3 41 +42 +42 опасность
перегрева
1004.0 983.9 +45.1
15 21.01 С 2 н/о н/о +35.1 +21.0 44 +42 +42 опасность
перегрева
1004.9 984.8
16 21.01 З 7 н/о в посл. час дождь {туман} н/о +31.7 +18.3 45 +36 +36 очень
душно
1002.7 982.7
18 21.01 З 4 н/о н/о +33.7 +17.0 37 +37 +37 очень
душно
1001.5 981.5
19 21.01 Ю 2 н/о {туман} н/о +32.5 +18.3 43 +37 +37 очень
душно
1002.5 982.5
21 21.01 С 3 н/о н/о +29.8 +22.5 65 +39 +39 очень
душно
1003.3 983.3
22 21.01 СЗ 1 н/о н/о +29.4 +22.4 66 +38 +38 очень
душно
1003.5 983.4
00 22.01 ЮЗ 2 н/о н/о +34.9 +20.8 44 +42 +42 опасность
перегрева
1003.1 983.1
01 22.01 ЮЗ 2 н/о н/о +37.7 +16.6 29 +40 +40 очень
душно
1003.1 983.1 +29.5
03 22.01 С 2 н/о н/о +42.2 +12.9 18 +42 +42 опасность
перегрева
1002.6 982.6
04 22.01 СЗ 3 н/о н/о +43.2 +11.9 16 +42 +42 опасность
перегрева
1001.9 981.9
06 22.01 З 2 н/о н/о +43.9 +13.4 17 +44 +44 опасность
перегрева
1000.3 980.3
07 22.01 В 3 н/о н/о +43.9 +13.4 17 +44 +44 опасность
перегрева
999.3 979.3
09 22.01 С 13 н/о н/о +35.6 +19.9 40 +41 +41 опасность
перегрева
999.6 979.6
10 22.01 С 7 н/о н/о +29.9 +21.0 59 +37 +37 очень
душно
1001.8 981.8
12 22.01 С 4 н/о н/о +31.7 +19.3 48 +37 +37 очень
душно
1002.6 982.6
13 22.01 СВ 2 н/о н/о +30.5 +21.9 60 +39 +39 очень
душно
1004.2 984.1 +45.9
15 22.01 С 3 н/о н/о +30.3 +25.4 75 +44 +44 опасность
перегрева
1004.7 984.6
16 22.01 Ю 2 н/о н/о +30.4 +25.2 74 +44 +44 опасность
перегрева
1004.8 984.7
18 22.01 СВ 3 н/о н/о +29.2 +25.2 79 +42 +42 опасность
перегрева
1003.7 983.6
19 22.01 С 4 н/о н/о +28.4 +25.2 83 +41 +41 опасность
перегрева
1003.3 983.3
21 22.01 С 3 н/о н/о +27.7 +25.5 88 +41 +41 опасность
перегрева
1003.0 983.0
22 22.01 С 3 н/о н/о +27.6 +25.8 90 +41 +41 опасность
перегрева
1003.9 983.8
00 23.01 С 4 н/о н/о +30.7 +24.4 69 +43 +43 опасность
перегрева
1005.1 985.0
01 23.01 С 4 н/о н/о +31.7 +24.0 64 +44 +44 опасность
перегрева
1005.2 985.1 +27.6
03 23.01 С 5 н/о н/о +35.7 +21.2 43 +43 +43 опасность
перегрева
1004.4 984.3
04 23.01 С 5 н/о н/о +37.8 +19.7 35 +43 +43 опасность
перегрева
1003.5 983.4
06 23.01 С 4 н/о н/о +40.1 +16.3 25 +42 +42 опасность
перегрева
1001.4 981.4
07 23.01 С 8 н/о н/о +39.0 +18.3 30 +43 +43 опасность
перегрева
1000.8 980.8
09 23.01 СЗ 5 н/о н/о +38.7 +16.3 27 +41 +41 опасность
перегрева
1000.2 980.2
10 23.01 С 5 н/о н/о +38.0 +16.3 28 +40 +40 очень
душно
1001.1 981.1
12 23.01 СЗ 4 н/о н/о +34.7 +19.1 40 +40 +40 очень
душно
1002.5 982.5
13 23.01 ЮЗ 8 н/о н/о +30.9 +20.8 55 +38 +38 очень
душно
1004.3 984.2 +41.4
15 23.01 ЮЗ 2 н/о н/о +30.3 +20.2 55 +37 +37 очень
душно
1003.8 983.7
16 23.01 ЮЗ 2 н/о н/о +29.9 +20.5 57 +37 +37 очень
душно
1002.9 982.9
18 23.01 штиль 0 н/о н/о +29.4 +20.0 57 +36 +36 очень
душно
1001.5 981.5
19 23.01 С 2 н/о н/о +28.9 +20.1 59 +35 +35 очень
душно
1001.7 981.7
21 23.01 СВ 7 н/о н/о +28.6 +22.3 69 +37 +37 очень
душно
1004.1 984.0
22 23.01 СВ 3 н/о н/о +28.2 +19.2 58 +34 +34 очень
душно
1004.1 984.0
00 24.01 З 1 н/о н/о +30.5 +19.2 51 +36 +36 очень
душно
1003.6 983.5
01 24.01 ЮЗ 3 н/о н/о +33.2 +18.2 41 +38 +38 очень
душно
1003.2 983.2 +28.0
03 24.01 ЮВ 4 н/о н/о +37.5 +17.5 31 +41 +41 опасность
перегрева
1002.9 982.9

 

Местоположение метеостанции Марбл-бар (Западная Австралия, Австралия): широта -21.18 долгота 119.75 высота над уровнем моря 183 м.

В архиве по умолчанию представлена погода в Марбл-баре за последнюю неделю. Архивные данные за месяц целиком и за предыдущие месяцы, начиная с января 2011 года, Вы можете получить, выбрав интересующий диапазон дат из раскрывающегося списка и нажав кнопку "Ввод!".


*Определитесь, кто Вы:
робот инопланетянин человек

Внимание! Время в таблицах - всемирное. Для получения местного времени необходимо прибавить поправку, которая равна 8 ч.

Смотрите также архив погоды в соседних городах и на ближайших метеорологических станциях:

Погода в Порт-Хедленде (Западная Австралия, Австралия) (148 км)
Погода в Мандоре (Западная Австралия, Австралия) (198 км)
Погода в Ньюмане (Западная Австралия, Австралия) (248 км)
Погода в Телфере (Западная Австралия, Австралия) (261 км)
Погода в Роборне (Западная Австралия, Австралия) (274 км)
Погода в Параберду (Западная Австралия, Австралия) (302 км)
Погода в Каррате (Западная Австралия, Австралия) (314 км)
Погода в Марди (Западная Австралия, Австралия) (392 км)
Погода в Роули Шоалс (Западная Австралия, Австралия) (415 км)
Погода на Острове Варанас (Западная Австралия, Австралия) (438 км)

Пояснения к столбцам:

Ветер - указаны скорость ветра в м/с - средняя за 10 мин, порывы в срок и между сроками (в фигурных скобках) и направление, откуда дует ветер: С - северный, СВ - северо-восточный, В - восточный, ЮВ - юго-восточный, Ю - южный, ЮЗ - юго-западный, З - западный, СЗ - северо-западный.
Видимость - горизонтальная дальность видимости в метрах или километрах. При видимости от 1 до 10 км при отсутствии осадков обычно наблюдается дымка, при ухудшении видимости до 1 км и менее - туман. В сухую погоду видимость может ухудшаться дымом, пылью или мглою.
Явления - указаны атмосферные явления, наблюдавшиеся в срок или в последний час перед сроком; фигурными скобками обозначены явления, наблюдавшиеся между сроками (за 1-3 часа до срока); квадратными скобками обозначены град или гололедные отложения с указанием их диаметра в мм.
Облачность - указаны через наклонную черту общая и нижняя облачность в баллах и высота нижней границы облаков в метрах; квадратными скобками обозначены формы облаков: Ci - перистые, Cs - перисто-слоистые, Cc - перисто-кучевые, Ac - высококучевые, As - высокослоистые, Sc - слоисто-кучевые, Ns - слоисто-дождевые, Cu - кучевые, Cb - кучево-дождевые. Подробнее классификацию облаков см. в Атласе облаков (PDF).
T - Температура воздуха - температура, измеренная на высоте 2 м над землей.
Td - Температура точки росы - температура, при понижении до которой содержащийся в воздухе водяной пар достигнет насыщения.
f - Относительная влажность воздуха - влажноcть воздуха, измеренная на высоте 2 м над землей.
Te - Эффективная температура - температура, которую ощущает одетый по сезону человек в тени. Характеристика душности погоды. При расчете учитывается влияние влажности воздуха и скорости ветра на теплоощущения человека.
Tes - Эффективная температура на солнце - температура, которую ощущает человек, с поправкой на солнечный нагрев. Характеристика знойности погоды. Зависит от высоты солнца над горизонтом, облачности и скорости ветра. Ночью, в пасмурную погоду, а также при ветре 12 м/с и более поправка равна нулю.
P - Атмосферное давление - приведенное к уровню моря атмосферное давление.
Po - Атмосферное давление - измеренное на уровне метеостанции атмосферное давление.
Tmin - Минимальная температура - минимум температуры воздуха на высоте 2 м над землей.
Tmax - Максимальная температура - максимум температуры воздуха на высоте 2 м над землей.
R - Количество осадков - Количество выпавших осадков за период времени, мм. При наведении курсора мыши на число - период времени, за который выпало указанное количество осадков.
R24 - Количество осадков - Количество выпавших осадков за 24 часа, мм.
S - Снежный покров - Высота снежного покрова, см. При наведении курсора мыши на число - состояние снежного покрова и степень покрытия местности в баллах.